|   |  | Asteroid (144411) 2004 EW9
					
					
					
					
						
					
					
						
							(Preview) 
						
							
								The 1300 - 2900 metre wide asteroid 2004 EW9 will make a close pass (46.8 lunar distances, 0.1202 AU), travelling at 10.90 km/second, to the Earth-Moon system on the 16th July, 2012 @ 21:37 UT ±00:01.  See more The Lunar Distanc...               | Blobrana | 0 |  |  | 
		
			
			
				
				
					|   |  | Asteroid 2006 BC8
					
					
					
					
						
					
					
						
							(Preview) 
						
							
								The 25 - 56 metre wide asteroid 2006 BC8 will make a close pass (61.6 lunar distances, 0.1584 AU), travelling at 17.71 km/second, to the Earth-Moon system on the 16th July, 2012 @ 17:27 UT ±1 day 02:50.  See more The Lunar Dis...               | Blobrana | 0 |  |  | 
		
			
			
				
				
					|   |  | Asteroid 2012 MQ3
					
					
					
					
						
					
					
						
							(Preview) 
						
							
								Orbital elements:
2012 MQ3                                                 Earth MOID = 0.1186 AU
Epoch 2012 Mar. 14.0 TT = JDT 2456000.5                 MPC
M 281.56569              (2000.0)            P               Q
n   0.61836521     Peri.   31.20924     +0.52479474     +0.83956986
a   1.3644973      Node   270.79135     -0.80707075     +0.43832087
e   0.1777049      Incl.    8.07193     -0.27060540     +0.32093187
P   1.59           H   22.2           G   0... | Blobrana | 1 |  |  | 
		
			
			
				
				
					|   |  | Asteroid (276392) 2002 XH4
					
					
					
					
						
					
					
						
							(Preview) 
						
							
								The 370 - 840 metre wide asteroid 2002 XH4 will make a close pass (72.0 lunar distances, 0.1851 AU), travelling at 7.76 km/second, to the Earth-Moon system on the 7th July, 2012 @ 00:05 UT ±00:01.  See more The Lunar Distance (LD), the distance between Earth and the Moon, equals 384,401 km, (or 0.00256...  | Blobrana | 0 |  |  | 
		
			
			
				
				
					|   |  | Asteroid 2005 QQ30
					
					
					
					
						
					
					
						
							(Preview) 
						
							
								The 29 - 65 metre wide asteroid 2005 QQ30 will make a close pass (68.7 lunar distances, 0.1765 AU), travelling at 13.13 km/second, to the Earth-Moon system on the 6th July, 2012 @ 00:58 UT ±00:03.  See more The Lunar Distance (LD), the distance between Earth and the Moon, equals 384,401 km, (or 0.00256...  | Blobrana | 0 |  |  | 
		
			
			
				
				
					|   |  | Near-Earth Object family
					
					
					
					
						
					
					
						
							(Preview) 
						
							
								Title: Searching for the first Near-Earth Object family  Authors: Eva Schunova, Mikael Granvik, Robert Jedicke, Giovanni Gronchi, Richard Wainscoat, Shinsuke Abe    We report on our search for genetically related asteroids amongst the near-Earth object (NEO) population - families of NEOs akin t... | Blobrana | 0 |  |  | 
		
			
			
				
				
					|   |  | Asteroid 2008 YQ2
					
					
					
					
						
					
					
						
							(Preview) 
						
							
								The 29 - 65 metre wide asteroid 2008 YQ2 will make a close pass (41.1 lunar distances, 0.1057 AU), travelling at 15.60 km/second, to the Earth-Moon system on the 3rd July, 2012 @ 11:28 UT ±13:38.  See more The Lunar Distance (LD), the distance between Earth and the Moon, equals 384,401 km, (or 0.00256 A... | Blobrana | 0 |  |  | 
		
			
			
				
				
					|   |  | Asteroid 2012 LQ7
					
					
					
					
						
					
					
						
							(Preview) 
						
							
								Orbital elements:
2012 LQ7                                                 Earth MOID = 0.0972 AU
Epoch 2012 Mar. 14.0 TT = JDT 2456000.5                 MPC
M 326.37409              (2000.0)            P               Q
n   0.27464886     Peri.  201.38769     +0.35112196     +0.91948324
a   2.3439635      Node    89.52029     -0.83137627     +0.39302489
e   0.5303690      Incl.   10.18472     -0.43072829     -0.00905631
P   3.59           H   24.2           G...                      | Blobrana | 1 |  |  | 
		
			
			
				
				
					|   |  | Asteroid 2012 KM45
					
					
					
					
						
					
					
						
							(Preview) 
						
							
								Orbital elements:
2012 KM45                                                Earth MOID = 0.0681 AU
Epoch 2012 Mar. 14.0 TT = JDT 2456000.5                 MPC
M 333.35798              (2000.0)            P               Q
n   0.28122312     Peri.  158.69719     -0.23216016     +0.84895723
a   2.3072892      Node    95.28593     -0.94704876     -0.08599079
e   0.6006545      Incl.   28.47417     -0.22181144     -0.52141845
P   3.50           H   18.5...                                 | Blobrana | 1 |  |  | 
		
			
			
				
				
					|   |  | Asteroid 278447 Saviano (2007 TH)
					
					
					
					
						
					
					
						
							(Preview) 
						
							
								[url=http://www.upi.com/Odd_News/2012/06/30/Mafia-wr... | Blobrana | 0 |  |  | 
		
			
			
				
				
					|   |  | Asteroid 2004 CL
					
					
					
					
						
					
					
						
							(Preview) 
						
							
								The 220 - 480 metre wide asteroid 2004 CL will make a close pass (43.3 lunar distances, 0.1113 AU), travelling at 20.75 km/second, to the Earth-Moon system on the 30th June, 2012 @ 17:15 UT ±00:01.  See more The Lunar Distance (LD), the distance between Earth and the Moon, equals 384,401 km, (or 0.0025...  | Blobrana | 0 |  |  | 
		
			
			
				
				
					|   |  | Asteroid 2004 HB39
					
					
					
					
						
					
					
						
							(Preview) 
						
							
								The 77 - 170 metre wide asteroid 2004 HB39 will make a close pass (62.5 lunar distances, 0.1605 AU), travelling at 8.88 km/second, to the Earth-Moon system on the 20th June, 2012 @ 09:18 UT ±16:08.  See more The Lunar Distance (LD), the distance between Earth and the Moon, equals 384,401 km, (or 0.0025...  | Blobrana | 0 |  |  | 
		
			
			
				
				
					|   |  | Asteroid 2012 MY2
					
					
					
					
						
					
					
						
							(Preview) 
						
							
								Orbital elements:
2012 MY2                                                 Earth MOID = 0.0029 AU
Epoch 2012 Mar. 14.0 TT = JDT 2456000.5                 MPC
M 267.86091              (2000.0)            P               Q
n   0.70754979     Peri.   38.20404     +0.53038538     +0.84767152
a   1.2472822      Node   263.83050     -0.78074411     +0.48288871
e   0.1970325      Incl.    0.69238     -0.33034828     +0.21970773
P   1.39           H   26.2           G   0...                   | Blobrana | 2 |  |  | 
		
			
			
				
				
					|   |   | Asteroid 2012 MM11
					
					
					
					
						
					
					
						
							(Preview) 
						
							
								Orbital elements:
2012 MM11                                           PHA, Earth MOID = 0.0112 AU
Epoch 2012 Mar. 14.0 TT = JDT 2456000.5                 MPC
M 305.26102              (2000.0)            P               Q
n   0.31908096     Peri.  123.53183     +0.98466054     -0.16710809
a   2.1209745      Node   246.13213     +0.13628712     +0.91621170
e   0.6519749      Incl.    3.14585     +0.10894695     +0.36418541
P   3.09           H...                                    | Blobrana | 0 |  |  | 
		
			
			
				
				
					|   |  | Asteroid 2012 MR7
					
					
					
					
						
					
					
						
							(Preview) 
						
							
								Orbital elements:
2012 MR7                                                 Earth MOID = 0.2982 AU
Epoch 2012 Mar. 14.0 TT = JDT 2456000.5                 MPC
M 150.16110              (2000.0)            P               Q
n   0.51115983     Peri.  172.59493     +0.01645583     -0.92843597
a   1.5491670      Node   275.93162     +0.89716720     +0.17756520
e   0.1737864      Incl.   21.90851     +0.44138443     -0.32630850
P   1.93           H   19.1... | Blobrana | 0 |  |  |